Theta_e
334 335 337 338 339 341 344 344 347 350 354 355 355 356 358 362 360 355 353 355 350 348 351 350 368 363 362 358 358 360 363 361 360
334 333 335 338 340 341 343 345 346 349 353 357 357 355 361 360 364 359 356 366 359 354 363 358 360 360 362 361 358 362 363 354 359
334 337 336 338 339 342 344 345 347 349 351 355 357 356 357 357 358 359 359 359 363 362 350 358 361 359 359 361 361 362 365 362 363
333 335 336 338 339 341 346 346 346 347 350 352 355 355 358 358 357 357 359 355 359 359 361 362 360 363 362 360 360 361 365 365 363
335 337 337 339 341 339 342 347 349 350 348 350 353 356 358 357 358 358 356 356 356 359 362 364 364 362 363 361 359 363 362 359 357
335 337 339 341 342 343 343 344 348 348 351 352 353 356 355 355 357 357 356 357 361 360 365 364 361 366 362 361 360 363 361 363 359
332 334 339 341 341 343 345 347 349 351 350 352 353 354 357 361 359 361 357 360 364 361 365 365 365 365 365 363 361 362 359 362 360
331 332 335 340 340 343 344 346 350 352 353 355 355 354 356 362 368 366 367 367 367 365 365 364 367 366 364 364 359 356 363 363 360
330 332 333 336 340 344 343 344 345 346 348 349 355 355 356 363 364 365 365 367 365 367 365 366 367 364 363 363 355 344 345 357 360
330 332 332 335 338 343 346 345 348 345 349 351 350 352 355 358 364 363 367 367 367 366 364 366 364 364 364 364 366 337 339 344 356
331 332 332 335 339 341 343 345 346 349 349 348 352 353 350 357 361 362 366 366 366 368 367 367 365 365 365 364 363 333 333 340 356
331 333 333 335 338 341 342 341 343 347 348 350 351 352 355 357 357 361 364 363 363 365 365 366 365 365 366 366 365 329 330 341 356
328 328 330 331 333 336 339 342 344 344 345 346 347 349 353 356 359 359 357 362 363 364 364 364 362 364 365 353 366 325 325 339 353
330 331 331 333 334 333 336 341 343 344 343 343 348 351 353 356 355 355 356 361 365 363 362 362 363 362 365 366 362 350 324 324 357
326 327 328 333 337 336 337 340 342 343 340 345 349 352 352 352 353 351 351 355 358 357 357 356 358 360 361 365 361 334 321 321 321
324 326 329 332 334 335 339 342 343 341 342 346 349 351 349 350 346 346 344 342 345 344 345 340 344 349 345 342 343 340 319 319 319
326 327 329 331 334 334 336 341 342 344 344 348 347 345 347 345 342 332 327 328 324 336 340 341 334 333 336 334 333 331 328 323 320
327 328 329 331 333 334 336 339 339 340 345 347 347 345 342 335 331 331 325 312 308 314 318 317 336 337 336 331 327 323 318 318 321
329 329 331 332 334 334 335 338 337 340 344 344 344 339 334 332 331 329 324 319 315 303 301 300 302 304 320 312 308 302 301 301 303
327 331 332 334 333 334 335 335 335 341 338 336 335 331 330 333 329 327 322 321 319 315 309 302 298 300 303 304 302 301 300 301 303
Wind_Speed
17 17 17 17 15 12 11 14 15 13 18 15 14 14 13 10 10 7 7 9 5 7 8 9 13 8 5 4 5 5 4 5 6
7 10 16 11 15 14 13 14 14 15 17 15 15 15 12 12 10 11 9 5 7 9 4 4 8 6 7 7 7 6 5 6 4
7 6 7 16 14 14 12 13 14 15 14 15 15 15 13 12 13 12 10 7 5 4 8 7 5 7 8 7 7 7 6 6 7
8 8 7 5 9 8 12 11 11 16 16 16 15 15 13 12 13 13 12 12 11 10 7 5 6 5 6 6 8 8 6 7 6
8 5 5 5 12 11 13 9 7 5 12 15 15 14 13 13 12 13 14 13 13 12 10 9 9 7 10 9 8 8 9 10 8
7 5 4 4 3 7 9 14 12 12 12 12 12 14 15 14 14 14 14 14 12 12 11 11 12 11 10 10 10 11 9 10 10
7 5 5 6 5 4 5 8 13 12 13 12 12 9 12 12 13 13 14 13 12 13 11 11 12 11 11 11 11 11 11 10 11
7 6 7 6 6 6 4 5 2 7 9 9 12 12 12 12 10 12 11 11 11 12 12 12 12 12 13 13 12 12 13 11 9
7 7 6 7 6 6 6 6 6 5 7 6 6 10 11 11 11 12 12 12 13 12 12 12 12 13 13 13 12 11 11 13 11
7 6 5 6 6 7 7 9 8 7 7 5 5 10 12 13 12 13 13 13 13 13 13 13 14 14 13 14 13 10 13 11 10
7 7 4 3 3 5 7 7 8 6 5 5 5 6 7 9 12 12 13 13 13 13 12 14 13 14 14 13 12 13 13 11 12
7 7 5 3 1 1 3 4 4 5 6 7 8 12 11 9 11 11 12 14 14 13 13 13 13 13 13 13 13 11 14 13 12
5 4 4 3 2 4 5 5 5 5 6 6 9 11 12 10 9 7 8 11 13 14 12 12 12 13 14 15 13 11 13 13 11
3 2 3 3 5 6 5 5 5 5 7 9 10 9 9 9 5 9 9 10 9 10 11 11 12 13 13 14 14 11 11 12 10
3 6 8 7 8 7 6 5 6 8 5 10 10 9 8 8 4 3 4 7 8 9 10 12 12 11 11 9 7 10 9 7 2
5 5 6 8 6 6 6 5 7 7 7 10 8 10 8 4 3 1 4 4 4 1 3 2 4 4 4 4 4 4 9 5 3
6 6 6 8 8 7 8 5 5 5 9 9 9 8 7 4 4 4 5 5 4 3 4 2 2 2 3 4 3 4 5 7 10
5 6 7 7 8 8 8 5 5 8 8 9 9 4 5 6 5 3 5 6 5 4 1 3 2 3 3 5 5 4 6 8 8
6 8 8 8 7 7 8 6 6 9 5 8 4 5 5 4 5 5 4 4 4 14 11 8 11 11 7 5 11 13 16 17 19
4 7 6 6 9 10 7 7 8 4 3 3 4 4 6 5 6 6 5 5 5 5 8 19 18 14 15 17 17 20 16 17 16
Wind_Direction
176 178 203 220 199 192 170 185 180 179 164 189 193 191 202 191 195 211 221 202 263 235 158 235 139 175 205 210 194 204 204 234 245
181 204 188 209 214 209 187 188 189 190 167 188 195 199 195 188 178 221 220 220 195 234 270 120 151 187 203 182 206 212 182 244 223
122 155 208 183 209 205 199 185 191 189 187 183 201 204 194 193 186 200 220 237 238 257 332 246 135 187 205 212 205 211 217 242 198
111 125 143 169 188 217 213 201 184 190 191 191 198 207 195 198 194 197 204 208 201 235 241 267 234 198 252 230 221 222 226 259 296
90 70 100 167 173 211 206 216 239 205 186 198 196 208 201 199 200 203 201 213 210 204 217 211 225 222 219 222 236 252 202 232 256
125 120 103 116 183 186 213 184 218 214 207 203 195 200 201 207 203 207 216 207 215 221 205 212 218 206 216 219 229 228 223 242 245
137 131 126 103 153 147 219 213 188 219 214 208 201 200 209 205 211 214 218 218 215 212 221 213 221 219 212 223 229 228 235 218 221
152 152 138 147 141 141 182 212 239 192 230 221 206 207 225 212 219 217 222 236 231 222 215 217 220 220 216 216 224 223 216 228 230
179 160 145 133 126 135 160 163 191 204 228 262 279 249 244 230 212 228 228 221 222 223 227 228 225 225 227 223 225 216 157 187 222
181 159 156 146 147 147 138 163 175 194 199 199 220 251 246 233 233 228 220 222 218 219 216 226 226 225 223 226 228 166 168 179 220
173 162 142 150 148 139 175 184 163 185 198 183 209 259 252 254 243 232 234 223 226 224 222 213 219 227 221 225 224 181 177 177 222
156 156 161 157 147 319 322 302 265 227 240 250 231 232 230 237 244 241 237 224 228 230 225 218 213 222 222 221 229 183 178 178 222
141 134 159 239 206 239 240 251 269 261 263 268 270 263 264 246 252 282 265 254 236 234 231 237 233 215 218 215 223 175 176 195 225
158 208 241 243 257 264 277 282 271 277 301 279 273 268 263 265 269 260 257 263 256 246 237 235 236 232 220 221 215 185 206 202 221
318 311 298 241 223 268 301 295 279 272 266 283 282 268 252 242 248 314 317 304 269 261 249 241 235 231 223 216 194 133 192 202 242
343 330 326 311 296 285 276 286 285 299 291 277 283 278 244 207 152 108 33 6 349 18 352 331 263 198 154 118 112 97 124 162 145
350 342 327 309 292 280 279 273 303 321 289 285 278 269 223 163 140 98 50 26 8 334 297 214 173 133 150 136 119 119 130 122 105
328 330 315 304 294 290 294 297 311 289 292 275 273 250 168 133 122 103 87 58 10 343 27 297 266 188 165 163 161 152 137 139 134
330 324 315 300 288 287 290 328 292 266 294 296 280 161 152 157 140 121 102 111 84 44 34 359 91 70 108 45 85 96 100 94 94
335 281 286 333 320 302 296 287 270 305 292 245 190 155 142 147 145 114 121 111 99 87 64 58 43 83 102 101 110 99 95 100 96